Weather History for Grant County, OR

Change the Weather History Date:

Saturday, March 9, 2013

  Actual Average (KBNO) Record (KBNO)
Temperature  
Mean Temperature 37 °F 36 °F  
Max Temperature 51 °F 47 °F 69 °F (1972)
Min Temperature 23 °F 24 °F 9 °F (1951)
Degree Days  
Heating Degree Days 28 29  
Month to date heating degree days 276  
Since 1 July heating degree days 5804  
Cooling Degree Days 0 0  
Month to date cooling degree days 0  
Year to date cooling degree days 0  
Moisture  
Dew Point 21 °F    
Average Humidity 56    
Maximum Humidity 84    
Minimum Humidity 24    
Precipitation  
Precipitation 0.00 in 0.04 in 0.30 in (2014)
Month to date precipitation 0.34  
Year to date precipitation 2.55  
Sea Level Pressure  
Sea Level Pressure 30.29 in    
Wind  
Wind Speed 5 mph (West)    
Max Wind Speed 13 mph    
Max Gust Speed 20 mph    
Visibility 10 miles    
Events      
T = Trace of Precipitation, MM = Missing Value Source: NWS Daily Summary

Daily Weather History Graph

Daily Weather History Graph

Search for Another Location

Airport:

Trip Planner

Search our weather history database for the weather conditions in past years. The results will help you decide how hot, cold, wet, or windy it might be!

Date:

Astronomy

Mar. 09, 2013 Rise Set
Actual Time 6:18 AM PST 5:54 PM PST
Civil Twilight 5:49 AM PST 6:23 PM PST
Nautical Twilight 5:15 AM PST 6:57 PM PST
Astronomical Twilight 4:41 AM PST 7:31 PM PST
Moon 4:49 AM PST (3/9) 3:59 PM PST (3/9)
Length of Visible Light 12h 34m
Length of Day
11h 36m
Waning Crescent, 5% of the Moon is Illuminated
Mar 9
Waning Crescent
Mar 11
New
Mar 19
First Quarter
Mar 27
Full
Apr 2
Last Quarter

Hourly Weather History & Observations

Time (PST) Temp. Windchill Dew Point Humidity Pressure Visibility Wind Dir Wind Speed Gust Speed Precip Events Conditions
12:15 AM 30.0 °F 24.1 °F 23.2 °F 76% 30.10 in 10.0 mi SSW 5.8 mph - N/A   Clear
12:35 AM 29.7 °F 23.7 °F 23.0 °F 76% 30.11 in 10.0 mi SW 5.8 mph - N/A   Clear
12:55 AM 30.7 °F 26.0 °F 23.4 °F 74% 30.12 in 10.0 mi SW 4.6 mph - N/A   Clear
1:15 AM 30.0 °F - 23.7 °F 77% 30.13 in 10.0 mi Calm Calm - N/A   Clear
1:35 AM 29.7 °F 26.1 °F 23.9 °F 79% 30.14 in 10.0 mi West 3.5 mph - N/A   Clear
1:55 AM 29.7 °F 26.1 °F 23.9 °F 79% 30.14 in 10.0 mi WSW 3.5 mph - N/A   Clear
2:15 AM 29.8 °F - 23.7 °F 78% 30.15 in 10.0 mi Calm Calm - N/A   Clear
2:35 AM 29.8 °F 26.3 °F 22.6 °F 75% 30.15 in 10.0 mi WSW 3.5 mph - N/A   Clear
2:55 AM 28.6 °F 22.4 °F 20.7 °F 72% 30.15 in 10.0 mi WSW 5.8 mph - N/A   Clear
3:15 AM 28.6 °F 22.4 °F 20.7 °F 72% 30.16 in 10.0 mi WSW 5.8 mph - N/A   Clear
3:35 AM 28.9 °F 25.2 °F 20.8 °F 72% 30.17 in 10.0 mi SW 3.5 mph - N/A   Clear
3:55 AM 28.4 °F - 20.5 °F 72% 30.17 in 10.0 mi Calm Calm - N/A   Clear
4:15 AM 29.3 °F - 20.3 °F 69% 30.19 in 10.0 mi Calm Calm - N/A   Clear
4:35 AM 27.9 °F - 21.0 °F 75% 30.20 in 10.0 mi Calm Calm - N/A   Clear
4:55 AM 23.2 °F 17.2 °F 18.9 °F 84% 30.21 in 10.0 mi ESE 4.6 mph - N/A   Clear
5:15 AM 24.1 °F 18.2 °F 19.2 °F 82% 30.21 in 10.0 mi ESE 4.6 mph - N/A   Clear
5:35 AM 24.6 °F 18.8 °F 19.4 °F 81% 30.22 in 10.0 mi East 4.6 mph - N/A   Clear
5:55 AM 23.9 °F 16.8 °F 18.9 °F 81% 30.22 in 10.0 mi East 5.8 mph - N/A   Clear
6:15 AM 23.0 °F 17.0 °F 18.5 °F 83% 30.23 in 10.0 mi ESE 4.6 mph - N/A   Scattered Clouds
6:35 AM 24.8 °F 19.1 °F 20.1 °F 82% 30.25 in 10.0 mi East 4.6 mph - N/A   Overcast
6:55 AM 25.7 °F 19.0 °F 20.7 °F 81% 30.25 in 10.0 mi ESE 5.8 mph - N/A   Overcast
7:15 AM 26.4 °F 18.9 °F 20.1 °F 77% 30.26 in 10.0 mi East 6.9 mph - N/A   Overcast
7:35 AM 26.4 °F 20.9 °F 20.3 °F 78% 30.27 in 10.0 mi East 4.6 mph - N/A   Scattered Clouds
7:55 AM 26.1 °F 20.5 °F 20.5 °F 79% 30.28 in 10.0 mi ESE 4.6 mph - N/A   Scattered Clouds
8:15 AM 27.0 °F 23.0 °F 21.0 °F 78% 30.28 in 10.0 mi East 3.5 mph - N/A   Scattered Clouds
8:35 AM 29.7 °F 24.7 °F 22.3 °F 74% 30.29 in 10.0 mi East 4.6 mph - N/A   Clear
8:55 AM 32.0 °F - 22.6 °F 68% 30.29 in 10.0 mi Calm Calm - N/A   Clear
9:15 AM 34.2 °F - 23.4 °F 65% 30.29 in 10.0 mi Calm Calm - N/A   Clear
9:35 AM 36.3 °F 33.7 °F 23.7 °F 60% 30.29 in 10.0 mi SSW 3.5 mph - N/A   Clear
9:55 AM 38.1 °F 35.7 °F 23.4 °F 55% 30.30 in 10.0 mi WSW 3.5 mph - N/A   Clear
10:15 AM 39.4 °F 37.2 °F 23.9 °F 54% 30.30 in 10.0 mi WSW 3.5 mph - N/A   Clear
10:35 AM 41.2 °F 37.3 °F 25.0 °F 53% 30.30 in 10.0 mi WSW 5.8 mph - N/A   Clear
10:55 AM 41.7 °F 38.0 °F 25.5 °F 53% 30.30 in 10.0 mi SW 5.8 mph - N/A   Clear
11:15 AM 42.3 °F 38.6 °F 25.7 °F 52% 30.30 in 10.0 mi West 5.8 mph - N/A   Clear
11:35 AM 44.4 °F 40.0 °F 26.8 °F 50% 30.31 in 10.0 mi West 8.1 mph - N/A   Clear
11:55 AM 46.0 °F 41.0 °F 25.5 °F 45% 30.31 in 10.0 mi West 10.4 mph 19.6 mph N/A   Clear
12:15 PM 46.6 °F - 24.4 °F 42% 30.32 in 10.0 mi West 11.5 mph - N/A   Clear
12:35 PM 48.0 °F - 25.0 °F 41% 30.32 in 10.0 mi West 10.4 mph 17.3 mph N/A   Clear
12:55 PM 48.4 °F - 24.3 °F 39% 30.32 in 10.0 mi WSW 11.5 mph 16.1 mph N/A   Clear
1:15 PM 49.3 °F - 24.3 °F 38% 30.32 in 10.0 mi WNW 8.1 mph 12.7 mph N/A   Clear
1:35 PM 49.8 °F - 17.8 °F 28% 30.32 in 10.0 mi NNW 6.9 mph 17.3 mph N/A   Clear
1:55 PM 50.0 °F - 17.6 °F 28% 30.32 in 10.0 mi North 11.5 mph - N/A   Clear
2:15 PM 50.7 °F - 18.0 °F 27% 30.32 in 10.0 mi NW 10.4 mph - N/A   Clear
2:35 PM 50.5 °F - 14.9 °F 24% 30.32 in 10.0 mi North 11.5 mph - N/A   Clear
2:55 PM 51.1 °F - 15.1 °F 24% 30.32 in 10.0 mi NNW 12.7 mph 16.1 mph N/A   Clear
3:15 PM 50.7 °F - 16.3 °F 26% 30.34 in 10.0 mi NNW 6.9 mph 16.1 mph N/A   Clear
3:35 PM 50.9 °F - 17.6 °F 27% 30.33 in 10.0 mi North 11.5 mph 16.1 mph N/A   Clear
3:55 PM 50.5 °F - 17.8 °F 27% 30.34 in 10.0 mi North 10.4 mph - N/A   Clear
4:15 PM 50.2 °F - 18.3 °F 28% 30.34 in 10.0 mi North 11.5 mph - N/A   Clear
4:35 PM 49.8 °F - 18.9 °F 29% 30.34 in 10.0 mi NW 9.2 mph - N/A   Clear
4:55 PM 49.3 °F - 18.7 °F 30% 30.34 in 10.0 mi NNW 10.4 mph - N/A   Clear
5:15 PM 48.2 °F - 20.1 °F 33% 30.34 in 10.0 mi North 5.8 mph - N/A   Clear
5:35 PM 45.7 °F 42.0 °F 21.0 °F 38% 30.35 in 10.0 mi North 6.9 mph - N/A   Clear
5:55 PM 43.9 °F 40.5 °F 19.9 °F 38% 30.36 in 10.0 mi NNW 5.8 mph - N/A   Clear
6:15 PM 42.8 °F 41.1 °F 19.6 °F 40% 30.36 in 10.0 mi NNW 3.5 mph - N/A   Clear
6:35 PM 45.1 °F - 19.9 °F 37% 30.36 in 10.0 mi Calm Calm - N/A   Clear
6:55 PM 41.4 °F 39.4 °F 20.1 °F 43% 30.37 in 10.0 mi SW 3.5 mph - N/A   Clear
7:15 PM 43.0 °F - 20.3 °F 40% 30.38 in 10.0 mi Calm Calm - N/A   Clear
7:35 PM 41.2 °F 38.2 °F 20.3 °F 43% 30.38 in 10.0 mi SW 4.6 mph - N/A   Clear
7:55 PM 41.5 °F - 18.9 °F 40% 30.38 in 10.0 mi Calm Calm - N/A   Clear
8:15 PM 39.7 °F 37.6 °F 17.6 °F 41% 30.39 in 10.0 mi SW 3.5 mph - N/A   Clear
8:35 PM 39.9 °F - 16.7 °F 39% 30.39 in 10.0 mi Calm Calm - N/A   Clear
8:55 PM 41.0 °F - 16.5 °F 37% 30.39 in 10.0 mi Calm Calm - N/A   Clear
9:15 PM 33.6 °F 26.8 °F 21.4 °F 61% 30.40 in 10.0 mi ESE 8.1 mph - N/A   Clear
9:35 PM 33.8 °F 28.6 °F 21.4 °F 60% 30.40 in 10.0 mi East 5.8 mph - N/A   Clear
9:55 PM 33.6 °F 26.8 °F 21.2 °F 60% 30.40 in 10.0 mi East 8.1 mph - N/A   Clear
10:15 PM 34.3 °F 27.0 °F 21.0 °F 58% 30.40 in 10.0 mi East 9.2 mph - N/A   Clear
10:35 PM 32.0 °F 24.8 °F 21.0 °F 64% 30.41 in 10.0 mi ESE 8.1 mph - N/A   Clear
10:55 PM 33.1 °F 26.9 °F 20.8 °F 61% 30.41 in 10.0 mi ESE 6.9 mph - N/A   Clear
11:15 PM 32.5 °F 26.2 °F 20.5 °F 61% 30.41 in 10.0 mi East 6.9 mph - N/A   Clear
11:35 PM 32.4 °F 26.0 °F 20.3 °F 61% 30.42 in 10.0 mi East 6.9 mph - N/A   Clear
11:55 PM 31.8 °F 26.2 °F 19.9 °F 62% 30.43 in 10.0 mi ESE 5.8 mph - N/A   Clear